EW0158 Weather Reports


Display with metric or nautical units.
time (UTC)temp
F
wind
direction
speed
MPH
gust
MPH
rain 1hr
in
rain 24hr
in
rain mn
in
humidity
%
barometer
mb
20210615191515 89 45 6.0 12.0 0.00 0.00 0.00 53 1019.9
20210615190515 87 45 11.0 16.0 0.00 0.00 0.00 60 1019.9
20210615185515 89 90 7.0 13.0 0.00 0.00 0.00 54 1019.9
20210615184515 90 0 8.0 14.0 0.00 0.00 0.00 55 1020.1
20210615183515 89 90 8.0 13.0 0.00 0.00 0.00 54 1020.1
20210615182515 89 0 7.0 20.0 0.00 0.00 0.00 56 1020.4
20210615181515 89 45 6.0 14.0 0.00 0.00 0.00 59 1020.3
20210615180515 87 45 5.0 12.0 0.00 0.00 0.00 63 1020.4
20210615175515 87 45 4.0 7.0 0.00 0.00 0.00 59 1020.3
20210615174515 87 45 7.0 12.0 0.00 0.00 0.00 59 1020.5
20210615173515 87 90 4.0 9.0 0.00 0.00 0.00 62 1020.4
20210615172515 85 22 5.0 11.0 0.00 0.00 0.00 63 1020.3
20210615171515 87 90 6.0 10.0 0.00 0.00 0.00 62 1020.5
20210615170515 86 67 4.0 7.0 0.00 0.00 0.00 61 1020.6
20210615165515 87 67 3.0 6.0 0.00 0.00 0.00 61 1020.5
20210615164515 87 45 7.0 11.0 0.00 0.00 0.00 62 1020.7
20210615163515 86 67 4.0 9.0 0.00 0.00 0.00 62 1020.6
20210615162515 84 67 4.0 6.0 0.00 0.00 0.00 65 1020.3
20210615161515 85 67 2.0 6.0 0.00 0.00 0.00 64 1020.4
20210615160515 84 45 6.0 10.0 0.00 0.00 0.00 68 1020.4
20210615155518 85 22 3.0 7.0 0.00 0.00 0.00 63 1020.6
20210615154515 85 135 2.0 5.0 0.00 0.00 0.00 61 1020.6
20210615153515 85 0 2.0 6.0 0.00 0.00 0.00 62 1020.7
20210615152515 83 22 1.0 4.0 0.00 0.00 0.00 64 1020.6
20210615151515 82 315 3.0 5.0 0.00 0.00 0.00 65 1020.5
20210615150515 82 315 4.0 5.0 0.00 0.00 0.00 66 1020.4
20210615145515 81 292 4.0 7.0 0.00 0.00 0.00 67 1020.5
20210615144515 80 315 5.0 7.0 0.00 0.00 0.00 68 1020.6
20210615143515 79 315 4.0 7.0 0.00 0.00 0.00 69 1020.6
20210615142516 79 337 5.0 9.0 0.00 0.00 0.00 72 1021.0
20210615141515 78 337 5.0 7.0 0.00 0.00 0.00 73 1020.8
20210615140516 77 337 7.0 10.0 0.00 0.00 0.00 73 1020.7
20210615135515 76 337 7.0 10.0 0.00 0.00 0.00 74 1020.9
20210615134516 76 337 7.0 10.0 0.00 0.00 0.00 75 1020.8
20210615133520 75 337 6.0 9.0 0.00 0.00 0.00 76 1020.5
20210615132516 73 337 6.0 9.0 0.00 0.00 0.00 79 1020.3
20210615131515 72 337 6.0 9.0 0.00 0.00 0.00 81 1020.1
20210615130515 71 315 5.0 7.0 0.00 0.00 0.00 82 1020.0
20210615125516 70 315 6.0 8.0 0.00 0.00 0.00 83 1019.9
20210615124515 70 315 5.0 8.0 0.00 0.00 0.00 83 1019.9
20210615123516 69 315 6.0 9.0 0.00 0.00 0.00 84 1019.9
20210615122516 69 315 5.0 7.0 0.00 0.00 0.00 85 1019.9
20210615121516 69 315 5.0 8.0 0.00 0.00 0.00 84 1019.9
20210615120515 69 292 5.0 7.0 0.00 0.00 0.00 84 1019.6
20210615115516 69 315 5.0 9.0 0.00 0.00 0.00 84 1019.7
20210615114515 69 292 3.0 5.0 0.00 0.00 0.00 84 1019.6
20210615113516 70 292 2.0 4.0 0.00 0.00 0.00 85 1019.5
20210615112515 69 202 3.0 4.0 0.00 0.00 0.00 86 1019.6
20210615111516 69 202 3.0 4.0 0.00 0.00 0.00 86 1019.6
20210615110516 69 202 3.0 4.0 0.00 0.00 0.00 85 1019.5
20210615105515 68 202 3.0 4.0 0.00 0.00 0.00 84 1019.3
20210615104515 69 202 3.0 4.0 0.00 0.00 0.00 84 1019.2
20210615103515 68 202 2.0 3.0 0.00 0.00 0.00 84 1019.5
20210615102515 68 202 2.0 3.0 0.00 0.00 0.00 85 1019.6
20210615101516 68 202 2.0 2.0 0.00 0.00 0.00 84 1019.1
20210615100515 68 202 1.0 2.0 0.00 0.00 0.00 84 1019.2
20210615095515 68 202 2.0 2.0 0.00 0.00 0.00 85 1018.9
20210615094516 68 202 2.0 3.0 0.00 0.00 0.00 85 1019.1
20210615093515 68 202 2.0 2.0 0.00 0.00 0.00 85 1019.0
20210615092515 68 202 3.0 3.0 0.00 0.00 0.00 85 1019.1
20210615091516 68 0.0 0.0 0.00 0.00 0.00 85 1018.9
20210615090515 68 0.0 0.0 0.00 0.00 0.00 85 1018.9
20210615085516 68 202 1.0 2.0 0.00 0.00 0.00 85 1018.8
20210615084515 68 202 1.0 2.0 0.00 0.00 0.00 85 1019.0
20210615083516 68 0.0 1.0 0.00 0.00 0.00 84 1018.7
20210615082516 68 202 2.0 3.0 0.00 0.00 0.00 84 1018.6
20210615081516 68 202 3.0 4.0 0.00 0.00 0.00 84 1018.9
20210615080515 68 202 4.0 5.0 0.00 0.00 0.00 83 1018.7
20210615075516 69 202 1.0 3.0 0.00 0.00 0.00 82 1018.8
20210615074515 69 202 1.0 2.0 0.00 0.00 0.00 81 1018.8
20210615073515 70 202 2.0 3.0 0.00 0.00 0.00 81 1018.8
20210615072516 70 202 2.0 3.0 0.00 0.00 0.00 80 1018.7
20210615071516 70 202 2.0 3.0 0.00 0.00 0.00 79 1019.0
20210615070516 71 202 4.0 8.0 0.00 0.00 0.00 79 1018.9
20210615065516 71 67 3.0 4.0 0.00 0.00 0.00 77 1018.9
20210615064516 71 67 3.0 4.0 0.00 0.00 0.00 78 1018.9
20210615063515 71 22 3.0 5.0 0.00 0.00 0.00 78 1018.9
20210615062515 71 22 1.0 2.0 0.00 0.00 0.00 77 1018.9
20210615061516 71 22 2.0 3.0 0.00 0.00 0.00 77 1019.1
20210615060516 72 22 3.0 4.0 0.00 0.00 0.00 78 1019.3
20210615055515 72 22 4.0 5.0 0.00 0.00 0.00 77 1019.3
20210615054516 72 0 5.0 7.0 0.00 0.00 0.00 77 1019.3
20210615053516 72 0 7.0 10.0 0.00 0.00 0.00 77 1019.3
20210615052516 71 22 6.0 8.0 0.00 0.00 0.00 78 1019.4
20210615051516 71 22 6.0 10.0 0.00 0.00 0.00 79 1019.4
20210615050516 70 45 4.0 5.0 0.00 0.00 0.00 80 1019.2
20210615045516 72 225 2.0 5.0 0.00 0.00 0.00 78 1019.1
20210615044515 72 0.0 2.0 0.00 0.00 0.00 76 1019.2
20210615043515 72 0.0 2.0 0.00 0.00 0.00 75 1018.6
20210615042516 72 202 2.0 4.0 0.00 0.00 0.00 74 1018.5
20210615041515 72 202 5.0 7.0 0.00 0.00 0.00 74 1018.2
20210615040515 72 202 5.0 7.0 0.00 0.00 0.00 73 1017.9
20210615035515 72 202 6.0 10.0 0.00 0.00 0.00 74 1017.9
20210615034515 72 202 6.0 9.0 0.00 0.00 0.00 73 1017.8
20210615033515 73 202 5.0 9.0 0.00 0.00 0.00 73 1017.7
20210615032515 73 202 4.0 5.0 0.00 0.00 0.00 72 1018.1
20210615031515 74 202 2.0 3.0 0.00 0.00 0.00 72 1018.5
20210615030516 75 202 3.0 5.0 0.00 0.00 0.00 70 1018.6
20210615025516 75 157 4.0 7.0 0.00 0.00 0.00 68 1018.8
20210615024516 77 180 7.0 11.0 0.00 0.00 0.00 66 1018.7
20210615023515 79 135 5.0 14.0 0.00 0.00 0.00 63 1019.0
20210615022516 81 112 8.0 18.0 0.00 0.00 0.00 62 1019.2
20210615021515 81 67 5.0 6.0 0.00 0.00 0.00 65 1018.7
20210615020515 81 90 3.0 4.0 0.00 0.00 0.00 64 1018.6
20210615015516 82 90 3.0 4.0 0.00 0.00 0.00 63 1018.3
20210615014515 83 90 2.0 3.0 0.00 0.00 0.00 62 1017.9
20210615013515 84 90 3.0 4.0 0.00 0.00 0.00 58 1018.0
20210615012515 84 90 3.0 4.0 0.00 0.00 0.00 57 1017.8
20210615011516 85 90 3.0 5.0 0.00 0.00 0.00 57 1017.8
20210615010515 85 90 4.0 6.0 0.00 0.00 0.00 55 1017.9
20210615005516 86 90 4.0 6.0 0.00 0.00 0.00 53 1017.7
20210615004515 87 90 5.0 9.0 0.00 0.00 0.00 52 1017.6
20210615003515 87 90 8.0 11.0 0.00 0.00 0.00 51 1017.4
20210615002516 88 90 6.0 10.0 0.00 0.00 0.00 51 1017.3
20210615001515 88 112 7.0 11.0 0.00 0.00 0.00 48 1017.1
20210615000516 88 90 7.0 11.0 0.00 0.00 0.00 47 1016.9
20210614235516 88 90 8.0 15.0 0.00 0.00 0.00 50 1016.8
20210614234516 89 90 9.0 14.0 0.00 0.00 0.00 49 1016.4
20210614233516 89 90 11.0 15.0 0.00 0.00 0.00 50 1016.5
20210614232516 89 90 10.0 15.0 0.00 0.00 0.00 49 1016.6
20210614231515 90 67 10.0 14.0 0.00 0.00 0.00 48 1016.9
20210614230516 91 90 9.0 16.0 0.00 0.00 0.00 47 1016.8
20210614225516 90 90 6.0 10.0 0.00 0.00 0.00 50 1016.9
20210614224516 89 112 7.0 12.0 0.00 0.00 0.00 50 1016.9
20210614223515 90 90 9.0 13.0 0.00 0.00 0.00 49 1017.1
20210614222515 91 112 8.0 20.0 0.00 0.00 0.00 48 1017.1
20210614221516 90 112 9.0 16.0 0.00 0.00 0.00 44 1017.0
20210614220515 90 112 11.0 16.0 0.00 0.00 0.00 45 1016.9
20210614215516 91 90 10.0 15.0 0.00 0.00 0.00 45 1016.9
20210614214516 90 90 9.0 15.0 0.00 0.00 0.00 48 1017.1
20210614213516 90 90 11.0 17.0 0.00 0.00 0.00 48 1017.2
20210614212515 91 112 6.0 11.0 0.00 0.00 0.00 46 1017.1
20210614211515 91 90 12.0 17.0 0.00 0.00 0.00 50 1017.2
20210614210516 91 112 8.0 15.0 0.00 0.00 0.00 47 1017.2
20210614205516 90 112 8.0 15.0 0.00 0.00 0.00 51 1017.3
20210614204520 91 90 13.0 20.0 0.00 0.00 0.00 48 1017.3
20210614203516 91 90 10.0 15.0 0.00 0.00 0.00 47 1017.4
20210614202515 90 90 11.0 17.0 0.00 0.00 0.00 52 1017.5
20210614201516 90 90 11.0 15.0 0.00 0.00 0.00 50 1017.6
20210614200516 90 90 11.0 17.0 0.00 0.00 0.00 53 1017.7
20210614195516 88 90 8.0 13.0 0.00 0.00 0.00 53 1017.8
20210614194516 90 112 8.0 16.0 0.00 0.00 0.00 50 1018.2
20210614193516 91 112 7.0 12.0 0.00 0.00 0.00 50 1018.2
20210614192516 90 112 5.0 11.0 0.00 0.00 0.00 50 1018.2